Time,TemperatureF,DewpointF,PressureIn,WindDirection,WindDirectionDegrees,WindSpeedMPH,WindSpeedGustMPH,Humidity,HourlyPrecipIn,Conditions,Clouds,dailyrainin,SoftwareType,DateUTC
2013-02-25 00:13:00,21.5,17.0,30.18,WNW,287,0.0,0.0,83,0.00,,,0.00,weatherlink.com 1.10,2013-02-25 05:13:00,
2013-02-25 00:28:00,21.4,17.0,30.19,WNW,286,0.0,0.0,83,0.00,,,0.00,weatherlink.com 1.10,2013-02-25 05:28:00,
2013-02-25 00:43:00,21.0,17.0,30.19,WNW,287,0.0,0.0,83,0.00,,,0.00,weatherlink.com 1.10,2013-02-25 05:43:00,
2013-02-25 00:58:00,20.1,16.0,30.19,WNW,287,0.0,0.0,83,0.00,,,0.00,weatherlink.com 1.10,2013-02-25 05:58:00,
2013-02-25 01:14:00,19.7,15.0,30.19,WNW,287,0.0,0.0,83,0.00,,,0.00,weatherlink.com 1.10,2013-02-25 06:14:00,
2013-02-25 01:28:00,19.6,15.0,30.20,WNW,287,0.0,0.0,83,0.00,,,0.00,weatherlink.com 1.10,2013-02-25 06:28:00,
2013-02-25 01:43:00,19.5,15.0,30.20,WNW,286,0.0,0.0,83,0.00,,,0.00,weatherlink.com 1.10,2013-02-25 06:43:00,
2013-02-25 01:58:00,19.4,15.0,30.20,WNW,287,0.0,0.0,83,0.00,,,0.00,weatherlink.com 1.10,2013-02-25 06:58:00,
2013-02-25 02:13:00,19.3,15.0,30.21,WNW,286,0.0,0.0,83,0.00,,,0.00,weatherlink.com 1.10,2013-02-25 07:13:00,
2013-02-25 02:28:00,19.2,15.0,30.20,WNW,287,0.0,0.0,83,0.00,,,0.00,weatherlink.com 1.10,2013-02-25 07:28:00,
2013-02-25 02:43:00,19.1,15.0,30.20,WNW,286,0.0,0.0,83,0.00,,,0.00,weatherlink.com 1.10,2013-02-25 07:43:00,
2013-02-25 02:58:00,18.9,15.0,30.20,WNW,286,0.0,0.0,83,0.00,,,0.00,weatherlink.com 1.10,2013-02-25 07:58:00,
2013-02-25 03:14:00,18.8,15.0,30.19,WNW,286,0.0,0.0,83,0.00,,,0.00,weatherlink.com 1.10,2013-02-25 08:14:00,
2013-02-25 03:29:00,18.4,14.0,30.19,WNW,287,0.0,0.0,83,0.00,,,0.00,weatherlink.com 1.10,2013-02-25 08:29:00,
2013-02-25 03:44:00,18.1,14.0,30.19,WNW,287,0.0,0.0,83,0.00,,,0.00,weatherlink.com 1.10,2013-02-25 08:44:00,
2013-02-25 03:59:00,17.7,13.0,30.19,WNW,287,0.0,0.0,83,0.00,,,0.00,weatherlink.com 1.10,2013-02-25 08:59:00,
2013-02-25 04:14:00,17.6,13.0,30.19,WNW,287,0.0,0.0,83,0.00,,,0.00,weatherlink.com 1.10,2013-02-25 09:14:00,
2013-02-25 04:29:00,17.3,13.0,30.19,WNW,286,0.0,0.0,84,0.00,,,0.00,weatherlink.com 1.10,2013-02-25 09:29:00,
2013-02-25 04:44:00,17.1,13.0,30.20,WNW,286,0.0,0.0,84,0.00,,,0.00,weatherlink.com 1.10,2013-02-25 09:44:00,
2013-02-25 04:59:00,16.3,12.0,30.20,WNW,286,0.0,0.0,84,0.00,,,0.00,weatherlink.com 1.10,2013-02-25 09:59:00,
2013-02-25 05:14:00,16.2,12.0,30.21,WNW,287,0.0,0.0,83,0.00,,,0.00,weatherlink.com 1.10,2013-02-25 10:14:00,
2013-02-25 05:29:00,16.5,12.0,30.21,WNW,287,0.0,0.0,83,0.00,,,0.00,weatherlink.com 1.10,2013-02-25 10:29:00,
2013-02-25 05:44:00,16.4,12.0,30.21,WNW,286,0.0,0.0,84,0.00,,,0.00,weatherlink.com 1.10,2013-02-25 10:44:00,
2013-02-25 05:59:00,16.7,13.0,30.21,WNW,286,0.0,0.0,84,0.00,,,0.00,weatherlink.com 1.10,2013-02-25 10:59:00,
2013-02-25 06:14:00,16.8,13.0,30.22,WNW,287,0.0,0.0,84,0.00,,,0.00,weatherlink.com 1.10,2013-02-25 11:14:00,
2013-02-25 06:29:00,17.4,13.0,30.22,WNW,287,0.0,0.0,83,0.00,,,0.00,weatherlink.com 1.10,2013-02-25 11:29:00,
2013-02-25 06:44:00,17.8,14.0,30.22,WNW,287,0.0,0.0,83,0.00,,,0.00,weatherlink.com 1.10,2013-02-25 11:44:00,
2013-02-25 06:59:00,18.0,14.0,30.23,WNW,287,0.0,0.0,83,0.00,,,0.00,weatherlink.com 1.10,2013-02-25 11:59:00,
2013-02-25 07:14:00,18.2,14.0,30.23,WNW,286,0.0,0.0,83,0.00,,,0.00,weatherlink.com 1.10,2013-02-25 12:14:00,
2013-02-25 07:29:00,18.3,14.0,30.23,WNW,287,0.0,0.0,83,0.00,,,0.00,weatherlink.com 1.10,2013-02-25 12:29:00,
2013-02-25 07:44:00,18.5,14.0,30.24,NE,45,0.0,0.0,83,0.00,,,0.00,weatherlink.com 1.10,2013-02-25 12:44:00,
2013-02-25 07:59:00,18.8,15.0,30.25,ENE,57,0.0,0.0,83,0.00,,,0.00,weatherlink.com 1.10,2013-02-25 12:59:00,
2013-02-25 08:14:00,19.1,15.0,30.25,NE,56,0.0,0.0,83,0.00,,,0.00,weatherlink.com 1.10,2013-02-25 13:14:00,
2013-02-25 08:29:00,20.2,16.0,30.25,NE,56,0.0,0.0,83,0.00,,,0.00,weatherlink.com 1.10,2013-02-25 13:29:00,
2013-02-25 08:44:00,21.8,17.0,30.25,NE,56,0.0,0.0,82,0.00,,,0.00,weatherlink.com 1.10,2013-02-25 13:44:00,
2013-02-25 08:59:00,23.5,19.0,30.26,ESE,110,0.0,0.0,82,0.00,,,0.00,weatherlink.com 1.10,2013-02-25 13:59:00,
2013-02-25 09:29:00,25.9,21.0,30.23,East,92,0.0,0.0,81,0.00,,,0.00,weatherlink.com 1.10,2013-02-25 14:29:00,
2013-02-25 09:44:00,28.1,23.0,30.24,SE,141,0.0,0.0,81,0.00,,,0.00,weatherlink.com 1.10,2013-02-25 14:44:00,
2013-02-25 09:59:00,30.1,26.0,30.24,SW,232,0.0,0.0,83,0.00,,,0.00,weatherlink.com 1.10,2013-02-25 14:59:00,
2013-02-25 10:14:00,30.4,26.0,30.24,WSW,253,0.0,0.0,85,0.00,,,0.00,weatherlink.com 1.10,2013-02-25 15:14:00,
2013-02-25 10:30:00,32.8,29.0,30.23,South,170,0.0,5.0,84,0.00,,,0.00,weatherlink.com 1.10,2013-02-25 15:30:00,
2013-02-25 10:45:00,33.4,29.0,30.22,ESE,117,0.0,0.0,83,0.00,,,0.00,weatherlink.com 1.10,2013-02-25 15:45:00,
2013-02-25 11:00:00,35.1,29.0,30.23,SSE,152,2.0,3.0,77,0.00,,,0.00,weatherlink.com 1.10,2013-02-25 16:00:00,
2013-02-25 11:15:00,36.1,29.0,30.23,WSW,249,0.0,4.0,74,0.00,,,0.00,weatherlink.com 1.10,2013-02-25 16:15:00,
2013-02-25 11:30:00,36.7,28.0,30.23,WSW,244,2.0,3.0,72,0.00,,,0.00,weatherlink.com 1.10,2013-02-25 16:30:00,
2013-02-25 11:45:00,37.2,29.0,30.23,South,170,3.0,4.0,72,0.01,,,0.01,weatherlink.com 1.10,2013-02-25 16:45:00,
2013-02-25 12:00:00,38.2,29.0,30.23,SSE,165,0.0,4.0,70,0.01,,,0.01,weatherlink.com 1.10,2013-02-25 17:00:00,
2013-02-25 12:15:00,38.7,29.0,30.22,SSW,211,3.0,4.0,68,0.02,,,0.02,weatherlink.com 1.10,2013-02-25 17:15:00,
2013-02-25 12:30:00,38.8,29.0,30.21,ENE,66,4.0,4.0,67,0.02,,,0.02,weatherlink.com 1.10,2013-02-25 17:30:00,
2013-02-25 12:45:00,39.4,28.0,30.21,SSE,163,3.0,4.0,65,0.01,,,0.02,weatherlink.com 1.10,2013-02-25 17:45:00,
2013-02-25 13:00:00,39.2,27.0,30.20,South,179,4.0,6.0,63,0.02,,,0.03,weatherlink.com 1.10,2013-02-25 18:00:00,
2013-02-25 13:15:00,39.4,28.0,30.19,WNW,290,0.0,3.0,65,0.01,,,0.03,weatherlink.com 1.10,2013-02-25 18:15:00,
2013-02-25 13:30:00,39.9,27.0,30.18,South,190,0.0,3.0,61,0.02,,,0.04,weatherlink.com 1.10,2013-02-25 18:30:00,
2013-02-25 14:00:00,40.1,26.0,30.18,WSW,240,0.0,2.0,58,0.01,,,0.04,weatherlink.com 1.10,2013-02-25 19:00:00,
2013-02-25 14:15:00,40.3,26.0,30.18,ENE,69,0.0,2.0,58,0.01,,,0.04,weatherlink.com 1.10,2013-02-25 19:15:00,
2013-02-25 14:30:00,40.9,26.0,30.18,SW,228,2.0,4.0,56,0.01,,,0.05,weatherlink.com 1.10,2013-02-25 19:30:00,
2013-02-25 14:45:00,40.5,27.0,30.19,WSW,238,0.0,3.0,58,0.01,,,0.05,weatherlink.com 1.10,2013-02-25 19:45:00,
2013-02-25 15:00:00,40.5,25.0,30.18,WSW,253,0.0,4.0,55,0.01,,,0.05,weatherlink.com 1.10,2013-02-25 20:00:00,
2013-02-25 15:15:00,40.0,26.0,30.18,NW,312,0.0,3.0,57,0.01,,,0.05,weatherlink.com 1.10,2013-02-25 20:15:00,
2013-02-25 15:30:00,41.4,26.0,30.17,SW,228,0.0,0.0,54,0.00,,,0.05,weatherlink.com 1.10,2013-02-25 20:30:00,
2013-02-25 15:45:00,41.9,27.0,30.16,NNE,20,0.0,2.0,56,0.00,,,0.05,weatherlink.com 1.10,2013-02-25 20:45:00,
2013-02-25 16:00:00,42.0,26.0,30.15,NW,304,0.0,0.0,54,0.00,,,0.05,weatherlink.com 1.10,2013-02-25 21:00:00,
2013-02-25 16:15:00,41.5,26.0,30.15,ESE,109,0.0,4.0,55,0.00,,,0.05,weatherlink.com 1.10,2013-02-25 21:15:00,
2013-02-25 16:30:00,40.9,26.0,30.15,NE,51,0.0,3.0,55,0.00,,,0.05,weatherlink.com 1.10,2013-02-25 21:30:00,
2013-02-25 16:45:00,41.0,27.0,30.14,ESE,104,0.0,3.0,57,0.00,,,0.05,weatherlink.com 1.10,2013-02-25 21:45:00,
2013-02-25 17:00:00,40.9,25.0,30.14,ESE,105,0.0,5.0,54,0.00,,,0.05,weatherlink.com 1.10,2013-02-25 22:00:00,
2013-02-25 17:15:00,41.0,26.0,30.15,South,176,0.0,3.0,55,0.00,,,0.05,weatherlink.com 1.10,2013-02-25 22:15:00,
2013-02-25 17:30:00,41.3,26.0,30.14,East,90,0.0,4.0,54,0.00,,,0.05,weatherlink.com 1.10,2013-02-25 22:30:00,
2013-02-25 17:45:00,40.4,26.0,30.15,ESE,103,0.0,0.0,57,0.00,,,0.05,weatherlink.com 1.10,2013-02-25 22:45:00,
2013-02-25 18:00:00,39.7,26.0,30.15,SSE,150,0.0,2.0,59,0.00,,,0.05,weatherlink.com 1.10,2013-02-25 23:00:00,
2013-02-25 18:15:00,38.9,26.0,30.15,SE,124,0.0,0.0,60,0.00,,,0.05,weatherlink.com 1.10,2013-02-25 23:15:00,
2013-02-25 18:45:00,36.8,26.0,30.15,ESE,113,0.0,0.0,64,0.00,,,0.05,weatherlink.com 1.10,2013-02-25 23:45:00,
2013-02-25 19:00:00,35.9,26.0,30.14,East,84,0.0,1.0,67,0.00,,,0.05,weatherlink.com 1.10,2013-02-26 00:00:00,
2013-02-25 19:16:00,35.4,26.0,30.15,East,92,0.0,1.0,68,0.00,,,0.05,weatherlink.com 1.10,2013-02-26 00:16:00,
2013-02-25 19:31:00,34.7,26.0,30.15,ESE,103,0.0,0.0,70,0.00,,,0.05,weatherlink.com 1.10,2013-02-26 00:31:00,
2013-02-25 19:46:00,34.0,26.0,30.15,ESE,102,0.0,0.0,71,0.00,,,0.05,weatherlink.com 1.10,2013-02-26 00:46:00,
2013-02-25 20:01:00,33.1,25.0,30.14,ESE,103,0.0,0.0,72,0.00,,,0.05,weatherlink.com 1.10,2013-02-26 01:01:00,
2013-02-25 20:16:00,32.5,25.0,30.14,ESE,103,0.0,0.0,74,0.00,,,0.05,weatherlink.com 1.10,2013-02-26 01:16:00,
2013-02-25 20:31:00,32.1,25.0,30.14,ESE,103,0.0,0.0,75,0.00,,,0.05,weatherlink.com 1.10,2013-02-26 01:31:00,
2013-02-25 20:46:00,31.9,25.0,30.14,NE,34,0.0,0.0,75,0.00,,,0.05,weatherlink.com 1.10,2013-02-26 01:46:00,
2013-02-25 21:02:00,31.5,24.0,30.12,NE,34,0.0,0.0,75,0.00,,,0.05,weatherlink.com 1.10,2013-02-26 02:02:00,
2013-02-25 21:16:00,31.3,25.0,30.12,NE,34,0.0,0.0,76,0.00,,,0.05,weatherlink.com 1.10,2013-02-26 02:16:00,
2013-02-25 21:31:00,31.1,24.0,30.12,East,87,0.0,0.0,76,0.00,,,0.05,weatherlink.com 1.10,2013-02-26 02:31:00,
2013-02-25 21:46:00,31.0,24.0,30.11,North,354,0.0,1.0,75,0.00,,,0.05,weatherlink.com 1.10,2013-02-26 02:46:00,
2013-02-25 22:01:00,30.8,24.0,30.11,East,100,0.0,2.0,75,0.00,,,0.05,weatherlink.com 1.10,2013-02-26 03:01:00,
2013-02-25 22:16:00,30.9,24.0,30.11,East,83,0.0,1.0,75,0.00,,,0.05,weatherlink.com 1.10,2013-02-26 03:16:00,
2013-02-25 22:31:00,30.7,24.0,30.12,East,94,0.0,1.0,76,0.00,,,0.05,weatherlink.com 1.10,2013-02-26 03:31:00,
2013-02-25 22:46:00,30.8,24.0,30.12,East,90,1.0,2.0,77,0.00,,,0.05,weatherlink.com 1.10,2013-02-26 03:46:00,
2013-02-25 23:01:00,30.7,24.0,30.11,ENE,68,0.0,3.0,76,0.00,,,0.05,weatherlink.com 1.10,2013-02-26 04:01:00,
2013-02-25 23:16:00,30.3,24.0,30.13,East,87,0.0,1.0,77,0.00,,,0.05,weatherlink.com 1.10,2013-02-26 04:16:00,
2013-02-25 23:31:00,30.6,24.0,30.14,East,95,0.0,4.0,77,0.00,,,0.05,weatherlink.com 1.10,2013-02-26 04:31:00,
2013-02-25 23:46:00,30.4,24.0,30.14,East,96,0.0,0.0,77,0.00,,,0.05,weatherlink.com 1.10,2013-02-26 04:46:00,